Monett, MO

9:48 AM CST on December 09, 2019 (GMT -0600)
Monett

Weather History for KHFJ - November, 2019

Change the Weather History Date:

Monday, November 11, 2019

  Actual Average (WUND) Record (WUND)
Temperature  
Mean Temperature 36 °F -  
Max Temperature 55 °F - - (-1)
Min Temperature 15 °F - - (-1)
Degree Days  
Heating Degree Days 29    
Moisture  
Dew Point 28 °F    
Average Humidity 86    
Maximum Humidity 100    
Minimum Humidity 68    
Precipitation  
Precipitation 0.00 in - - ()
Sea Level Pressure  
Sea Level Pressure 30.27 in    
Wind  
Wind Speed 11 mph ()    
Max Wind Speed 25 mph    
Max Gust Speed 37 mph    
Visibility 8.6 miles    
Events Rain , Snow    
Averages and records for this station are not official NWS values.
T = Trace of Precipitation, MM = Missing Value Source: Averaged Metar Reports

Daily Weather History Graph

Daily Weather History Graph

Search for Another Location

Airport or City:

Astronomy

Nov. 11, 2019 Rise Set
Actual Time 6:50 AM CST 5:09 PM CST
Civil Twilight 6:22 AM CST 5:37 PM CST
Nautical Twilight 5:51 AM CST 6:08 PM CST
Astronomical Twilight 5:20 AM CST 6:38 PM CST
Moon 5:03 PM CST (11/11) 5:44 AM CST (11/11)
Length of Visible Light 11h 14m
Length of Day
10h 19m
Waxing Gibbous, 99% of the Moon is Illuminated
Nov 11
Waxing Gibbous
Nov 12
Full
Nov 19
Last Quarter
Nov 26
New
Dec 4
First Quarter

Hourly Weather History & Observations

Time (CST) Temp. Windchill Dew Point Humidity Pressure Visibility Wind Dir Wind Speed Gust Speed Precip Events Conditions
12:15 AM 55.4 °F - 50.0 °F 82% 29.97 in 10.0 mi Calm Calm - N/A   Overcast
12:35 AM 55.4 °F - 50.0 °F 82% 29.96 in 10.0 mi SSE 4.6 mph - N/A   Overcast
12:55 AM 53.6 °F - 50.0 °F 88% 29.97 in 10.0 mi Calm Calm - N/A   Overcast
1:15 AM 53.6 °F - 51.8 °F 94% 29.97 in 10.0 mi North 6.9 mph - N/A   Overcast
1:35 AM 55.4 °F - 51.8 °F 88% 29.96 in 10.0 mi North 4.6 mph - N/A   Overcast
1:55 AM 55.4 °F - 51.8 °F 88% 29.96 in 10.0 mi NNE 4.6 mph - N/A   Overcast
2:55 AM 51.8 °F - 48.2 °F 88% 29.98 in 10.0 mi NNE 9.2 mph - N/A   Overcast
3:15 AM 50.0 °F - 46.4 °F 87% 29.98 in 10.0 mi NE 10.4 mph - N/A   Overcast
3:35 AM 50.0 °F - 44.6 °F 82% 29.97 in 10.0 mi NE 9.2 mph - N/A   Overcast
4:15 AM 48.2 °F - 42.8 °F 82% 29.99 in 10.0 mi North 9.2 mph - N/A   Overcast
4:35 AM 46.4 °F 41.5 °F 41.0 °F 81% 29.99 in 10.0 mi NNE 10.4 mph 18.4 mph N/A   Overcast
4:55 AM 44.6 °F 38.8 °F 41.0 °F 87% 30.00 in 10.0 mi North 11.5 mph 17.3 mph N/A   Overcast
5:15 AM 44.6 °F 38.4 °F 41.0 °F 87% 30.02 in 10.0 mi North 12.7 mph - N/A   Overcast
5:35 AM 42.8 °F 36.6 °F 41.0 °F 93% 30.03 in 10.0 mi North 11.5 mph 18.4 mph N/A   Light Drizzle
5:55 AM 42.8 °F 36.2 °F 41.0 °F 93% 30.03 in 7.0 mi North 12.7 mph 18.4 mph N/A   Overcast
6:15 AM 41.0 °F 32.5 °F 37.4 °F 87% 30.06 in 10.0 mi North 17.3 mph 24.2 mph N/A   Overcast
6:35 AM 39.2 °F 29.8 °F 35.6 °F 87% 30.07 in 10.0 mi North 18.4 mph 24.2 mph N/A   Overcast
6:55 AM 37.4 °F 28.2 °F 35.6 °F 93% 30.09 in 10.0 mi North 16.1 mph 25.3 mph N/A   Overcast
7:15 AM 37.4 °F 27.2 °F 33.8 °F 87% 30.11 in 10.0 mi North 19.6 mph 28.8 mph N/A   Overcast
7:35 AM 35.6 °F 25.2 °F 33.8 °F 93% 30.13 in 7.0 mi North 18.4 mph 25.3 mph N/A   Overcast
7:55 AM 33.8 °F 22.2 °F 33.8 °F 100% 30.15 in 5.0 mi North 20.7 mph 28.8 mph N/A Rain Light Rain
8:15 AM 33.8 °F 23.2 °F 32.0 °F 93% 30.16 in 3.0 mi North 17.3 mph 29.9 mph N/A   Light Drizzle
8:35 AM 32.0 °F 20.1 °F 32.0 °F 100% 30.18 in 4.0 mi North 19.6 mph 25.3 mph N/A   Light Drizzle
8:55 AM 32.0 °F 20.5 °F 32.0 °F 100% 30.20 in 3.0 mi North 18.4 mph 26.5 mph N/A Rain Light Rain
9:55 AM 32.0 °F 21.6 °F 32.0 °F 100% 30.24 in 4.0 mi North 15.0 mph 24.2 mph N/A   Drizzle
10:15 AM 32.0 °F 18.6 °F 30.2 °F 93% 30.25 in 7.0 mi North 25.3 mph 31.1 mph N/A   Overcast
10:35 AM 30.2 °F 16.5 °F 28.4 °F 93% 30.25 in 10.0 mi North 24.2 mph 36.8 mph N/A   Overcast
10:55 AM 30.2 °F 16.8 °F 28.4 °F 93% 30.27 in 7.0 mi North 23.0 mph 31.1 mph N/A Rain Light Freezing Rain
11:15 AM 30.2 °F 17.8 °F 28.4 °F 93% 30.28 in 1.8 mi North 19.6 mph 27.6 mph N/A Snow Light Snow
11:35 AM 30.2 °F 17.1 °F 28.4 °F 93% 30.29 in 7.0 mi North 21.9 mph 28.8 mph N/A   Light Freezing Rain
11:55 AM 28.4 °F 15.8 °F 26.6 °F 93% 30.30 in 1.8 mi North 18.4 mph 28.8 mph N/A   Light Freezing Rain
12:15 PM 26.6 °F 12.0 °F 24.8 °F 93% 30.30 in 3.0 mi North 23.0 mph 28.8 mph N/A   Light Freezing Rain
12:35 PM 26.6 °F 12.0 °F 23.0 °F 86% 30.30 in 10.0 mi North 23.0 mph 29.9 mph N/A   Overcast
12:55 PM 26.6 °F 13.1 °F 23.0 °F 86% 30.30 in 10.0 mi North 19.6 mph 28.8 mph N/A   Overcast
1:15 PM 26.6 °F 13.4 °F 23.0 °F 86% 30.32 in 10.0 mi North 18.4 mph 28.8 mph N/A   Overcast
1:35 PM 26.6 °F 12.7 °F 23.0 °F 86% 30.33 in 10.0 mi North 20.7 mph 27.6 mph N/A   Overcast
1:55 PM 26.6 °F 13.1 °F 23.0 °F 86% 30.35 in 10.0 mi North 19.6 mph 24.2 mph N/A   Overcast
2:55 PM 23.0 °F 8.7 °F 19.4 °F 86% 30.37 in 10.0 mi North 18.4 mph 26.5 mph N/A   Overcast
3:15 PM 23.0 °F 9.6 °F 19.4 °F 86% 30.37 in 5.0 mi North 16.1 mph 23.0 mph N/A Snow Light Snow
3:55 PM 21.2 °F 5.6 °F 17.6 °F 86% 30.41 in 5.0 mi North 20.7 mph 27.6 mph N/A Snow Light Snow
4:15 PM 23.0 °F 11.1 °F 19.4 °F 86% 30.41 in 10.0 mi North 12.7 mph 23.0 mph N/A Snow Light Snow
4:35 PM 21.2 °F 6.0 °F 17.6 °F 86% 30.43 in 5.0 mi North 19.6 mph 26.5 mph N/A Snow Light Snow
5:15 PM 21.2 °F 6.8 °F 17.6 °F 86% 30.45 in 10.0 mi North 17.3 mph 25.3 mph N/A   Overcast
5:35 PM 21.2 °F 6.4 °F 17.6 °F 86% 30.46 in 10.0 mi North 18.4 mph 29.9 mph N/A   Overcast
5:55 PM 21.2 °F 6.8 °F 17.6 °F 86% 30.47 in 10.0 mi North 17.3 mph 26.5 mph N/A   Overcast
6:15 PM 21.2 °F 7.3 °F 17.6 °F 86% 30.48 in 10.0 mi North 16.1 mph 21.9 mph N/A   Overcast
6:35 PM 21.2 °F 7.8 °F 15.8 °F 80% 30.49 in 10.0 mi North 15.0 mph 23.0 mph N/A   Overcast
7:15 PM 21.2 °F 8.9 °F 15.8 °F 80% 30.51 in 10.0 mi North 12.7 mph 21.9 mph N/A   Overcast
7:35 PM 21.2 °F 7.3 °F 14.0 °F 74% 30.52 in 10.0 mi NNW 16.1 mph 23.0 mph N/A   Overcast
7:55 PM 19.4 °F 5.5 °F 14.0 °F 80% 30.52 in 10.0 mi North 15.0 mph 24.2 mph N/A   Scattered Clouds
8:15 PM 19.4 °F 6.0 °F 14.0 °F 80% 30.53 in 10.0 mi North 13.8 mph 19.6 mph N/A   Scattered Clouds
8:55 PM 19.4 °F 6.0 °F 12.2 °F 74% 30.55 in 10.0 mi North 13.8 mph 20.7 mph N/A   Clear
9:15 PM 19.4 °F 6.6 °F 10.4 °F 68% 30.56 in 10.0 mi North 12.7 mph 23.0 mph N/A   Clear
9:35 PM 17.6 °F 3.7 °F 10.4 °F 73% 30.57 in 10.0 mi North 13.8 mph 20.7 mph N/A   Clear
9:55 PM 17.6 °F 4.3 °F 10.4 °F 73% 30.57 in 10.0 mi North 12.7 mph 21.9 mph N/A   Clear
10:35 PM 17.6 °F 2.7 °F 10.4 °F 73% 30.58 in 10.0 mi North 16.1 mph 20.7 mph N/A   Clear
11:15 PM 17.6 °F 3.7 °F 8.6 °F 68% 30.58 in 10.0 mi North 13.8 mph 21.9 mph N/A   Clear
11:35 PM 17.6 °F 3.7 °F 8.6 °F 68% 30.58 in 10.0 mi North 13.8 mph - N/A   Clear
11:55 PM 15.8 °F 3.4 °F 8.6 °F 73% 30.58 in 10.0 mi North 10.4 mph 16.1 mph N/A   Clear